QPF
0.00 0.00 0.01 0.01 0.01 0.01 0.01 0.00 0.01 0.00 0.00 0.00 0.00 0.00 0.00 0.00 0.00 0.00 0.00 0.00 0.00 0.00 0.00 0.00 0.00 0.01 0.01 0.00 0.00 0.00 0.00 0.00 0.00 0.00 0.00 0.00 0.00 0.00 0.00 0.00 0.00 0.00 0.00
0.00 0.00 0.01 0.01 0.01 0.01 0.01 0.01 0.00 0.00 0.00 0.00 0.00 0.00 0.00 0.00 0.00 0.00 0.00 0.00 0.00 0.00 0.02 0.02 0.01 0.07 0.06 0.01 0.00 0.00 0.00 0.00 0.00 0.00 0.00 0.00 0.00 0.00 0.00 0.00 0.00 0.00 0.00
0.00 0.00 0.00 0.01 0.01 0.01 0.01 0.00 0.01 0.01 0.01 0.00 0.00 0.00 0.00 0.00 0.00 0.00 0.00 0.00 0.00 0.01 0.02 0.03 0.04 0.04 0.01 0.00 0.00 0.00 0.00 0.00 0.00 0.00 0.00 0.00 0.00 0.00 0.00 0.00 0.00 0.00 0.00
0.00 0.00 0.00 0.00 0.01 0.01 0.00 0.00 0.00 0.01 0.01 0.00 0.00 0.00 0.00 0.00 0.00 0.00 0.00 0.00 0.00 0.01 0.00 0.00 0.00 0.00 0.00 0.00 0.00 0.00 0.00 0.00 0.00 0.00 0.00 0.00 0.00 0.00 0.00 0.00 0.00 0.00 0.00
0.00 0.00 0.00 0.00 0.00 0.00 0.00 0.00 0.00 0.00 0.01 0.00 0.00 0.00 0.00 0.00 0.00 0.00 0.00 0.00 0.00 0.00 0.00 0.00 0.00 0.00 0.00 0.00 0.00 0.00 0.00 0.00 0.00 0.00 0.00 0.00 0.00 0.00 0.00 0.01 0.00 0.00 0.00
0.00 0.00 0.00 0.00 0.00 0.00 0.00 0.00 0.00 0.00 0.00 0.00 0.01 0.00 0.00 0.00 0.00 0.00 0.00 0.00 0.00 0.00 0.00 0.00 0.00 0.00 0.00 0.00 0.00 0.00 0.00 0.00 0.00 0.00 0.00 0.00 0.00 0.01 0.00 0.01 0.00 0.02 0.03
0.00 0.00 0.00 0.00 0.00 0.00 0.00 0.00 0.00 0.00 0.00 0.00 0.01 0.00 0.00 0.00 0.00 0.00 0.00 0.00 0.00 0.00 0.00 0.00 0.00 0.00 0.00 0.00 0.00 0.00 0.00 0.00 0.00 0.00 0.00 0.00 0.00 0.00 0.00 0.00 0.00 0.01 0.01
0.00 0.00 0.00 0.00 0.00 0.00 0.00 0.00 0.00 0.00 0.00 0.01 0.00 0.00 0.00 0.00 0.00 0.00 0.00 0.00 0.00 0.00 0.00 0.00 0.00 0.00 0.00 0.00 0.00 0.00 0.00 0.00 0.00 0.00 0.00 0.00 0.00 0.00 0.00 0.00 0.00 0.00 0.00
0.00 0.00 0.00 0.00 0.00 0.00 0.00 0.00 0.00 0.00 0.00 0.00 0.00 0.00 0.00 0.00 0.00 0.00 0.00 0.00 0.00 0.00 0.00 0.00 0.00 0.00 0.00 0.00 0.00 0.00 0.00 0.00 0.00 0.00 0.00 0.00 0.00 0.00 0.00 0.01 0.00 0.00 0.00
0.00 0.00 0.00 0.00 0.00 0.00 0.00 0.00 0.00 0.00 0.00 0.00 0.00 0.00 0.00 0.00 0.00 0.00 0.00 0.00 0.00 0.00 0.00 0.00 0.00 0.00 0.00 0.00 0.00 0.00 0.00 0.00 0.00 0.00 0.00 0.00 0.00 0.01 0.01 0.01 0.00 0.00 0.00
0.00 0.00 0.00 0.00 0.00 0.00 0.00 0.00 0.00 0.00 0.00 0.00 0.00 0.00 0.00 0.00 0.00 0.00 0.00 0.00 0.00 0.00 0.00 0.01 0.00 0.00 0.00 0.00 0.00 0.00 0.00 0.00 0.00 0.00 0.00 0.00 0.00 0.01 0.00 0.00 0.00 0.00 0.00
0.00 0.00 0.00 0.00 0.00 0.00 0.00 0.00 0.00 0.00 0.00 0.00 0.00 0.00 0.00 0.00 0.00 0.00 0.00 0.00 0.00 0.00 0.00 0.00 0.00 0.00 0.00 0.00 0.00 0.00 0.00 0.00 0.00 0.00 0.00 0.00 0.01 0.00 0.00 0.00 0.00 0.00 0.00
0.01 0.00 0.00 0.00 0.00 0.00 0.00 0.00 0.00 0.00 0.00 0.00 0.00 0.00 0.00 0.00 0.00 0.00 0.00 0.00 0.00 0.00 0.00 0.00 0.00 0.00 0.00 0.00 0.00 0.00 0.00 0.00 0.00 0.00 0.00 0.00 0.00 0.00 0.00 0.00 0.00 0.00 0.00
0.00 0.01 0.01 0.00 0.00 0.00 0.00 0.00 0.00 0.00 0.00 0.00 0.00 0.00 0.00 0.00 0.00 0.00 0.00 0.00 0.00 0.00 0.00 0.00 0.00 0.00 0.00 0.00 0.00 0.00 0.00 0.00 0.00 0.00 0.00 0.00 0.00 0.00 0.00 0.00 0.00 0.00 0.00
0.00 0.00 0.01 0.01 0.00 0.00 0.00 0.00 0.00 0.00 0.00 0.00 0.00 0.00 0.00 0.00 0.00 0.00 0.00 0.00 0.00 0.00 0.00 0.00 0.00 0.00 0.00 0.00 0.00 0.00 0.00 0.00 0.00 0.00 0.00 0.00 0.00 0.00 0.00 0.00 0.00 0.00 0.00
0.00 0.00 0.01 0.01 0.01 0.00 0.00 0.00 0.00 0.00 0.00 0.00 0.00 0.00 0.00 0.00 0.00 0.00 0.00 0.00 0.00 0.00 0.00 0.00 0.00 0.00 0.00 0.00 0.00 0.00 0.00 0.00 0.00 0.00 0.00 0.00 0.00 0.00 0.00 0.00 0.00 0.00 0.00
0.00 0.01 0.01 0.01 0.04 0.01 0.00 0.00 0.00 0.01 0.01 0.00 0.00 0.00 0.00 0.00 0.00 0.00 0.00 0.00 0.00 0.00 0.00 0.00 0.00 0.00 0.00 0.00 0.00 0.00 0.00 0.00 0.00 0.00 0.00 0.00 0.00 0.00 0.00 0.00 0.00 0.00 0.00
0.00 0.00 0.00 0.04 0.02 0.01 0.00 0.03 0.01 0.01 0.00 0.00 0.00 0.00 0.00 0.00 0.00 0.00 0.00 0.00 0.00 0.00 0.00 0.00 0.00 0.00 0.00 0.00 0.00 0.00 0.00 0.00 0.00 0.00 0.00 0.00 0.00 0.00 0.00 0.00 0.00 0.00 0.00
0.00 0.00 0.00 0.00 0.00 0.00 0.01 0.02 0.03 0.04 0.04 0.02 0.01 0.00 0.00 0.00 0.00 0.00 0.00 0.00 0.00 0.00 0.00 0.00 0.00 0.00 0.00 0.00 0.00 0.00 0.00 0.00 0.00 0.00 0.00 0.00 0.00 0.00 0.00 0.00 0.00 0.00 0.00
0.00 0.00 0.00 0.00 0.00 0.00 0.00 0.03 0.05 0.01 0.01 0.01 0.03 0.00 0.00 0.00 0.00 0.00 0.02 0.00 0.00 0.00 0.00 0.00 0.00 0.00 0.00 0.00 0.00 0.00 0.00 0.00 0.00 0.00 0.00 0.00 0.00 0.00 0.00 0.00 0.00 0.00 0.00
0.00 0.00 0.00 0.00 0.00 0.00 0.00 0.00 0.02 0.00 0.00 0.01 0.04 0.04 0.01 0.01 0.04 0.03 0.07 0.01 0.00 0.00 0.00 0.00 0.00 0.00 0.00 0.00 0.00 0.00 0.00 0.00 0.00 0.00 0.00 0.00 0.00 0.00 0.00 0.00 0.00 0.00 0.00
0.00 0.00 0.00 0.00 0.00 0.00 0.00 0.00 0.00 0.00 0.00 0.00 0.04 0.02 0.01 0.04 0.06 0.01 0.08 0.03 0.00 0.00 0.00 0.00 0.00 0.00 0.00 0.00 0.00 0.00 0.00 0.00 0.00 0.00 0.00 0.00 0.00 0.00 0.00 0.00 0.00 0.00 0.00
0.00 0.00 0.00 0.00 0.00 0.00 0.00 0.00 0.00 0.00 0.00 0.00 0.00 0.00 0.01 0.04 0.08 0.03 0.06 0.07 0.03 0.01 0.00 0.00 0.00 0.00 0.00 0.00 0.00 0.00 0.00 0.00 0.00 0.00 0.00 0.00 0.00 0.00 0.00 0.00 0.00 0.00 0.00
0.00 0.00 0.00 0.00 0.00 0.00 0.00 0.00 0.00 0.00 0.00 0.00 0.00 0.00 0.03 0.06 0.07 0.09 0.08 0.08 0.08 0.05 0.01 0.01 0.00 0.00 0.00 0.00 0.00 0.00 0.00 0.00 0.00 0.00 0.00 0.00 0.00 0.00 0.00 0.00 0.00 0.00 0.00
0.00 0.00 0.00 0.00 0.00 0.00 0.00 0.00 0.00 0.00 0.00 0.00 0.00 0.00 0.01 0.04 0.05 0.05 0.05 0.05 0.03 0.05 0.04 0.02 0.01 0.00 0.00 0.00 0.00 0.00 0.00 0.00 0.00 0.00 0.00 0.00 0.00 0.00 0.00 0.00 0.00 0.00 0.00
0.00 0.00 0.00 0.00 0.00 0.00 0.00 0.00 0.00 0.00 0.00 0.00 0.01 0.02 0.01 0.03 0.02 0.01 0.01 0.01 0.03 0.03 0.04 0.04 0.03 0.01 0.00 0.00 0.00 0.00 0.00 0.00 0.00 0.00 0.00 0.00 0.00 0.00 0.00 0.00 0.00 0.00 0.00
MSLP
1012.65 1012.49 1012.61 1013.13 1013.43 1013.73 1014.09 1014.35 1014.58 1014.86 1015.18 1015.45 1015.66 1015.93 1016.15 1016.34 1016.49 1016.60 1016.72 1016.81 1016.72 1016.66 1016.79 1016.89 1016.90 1017.05 1017.32 1017.56 1017.82 1018.08 1018.26 1018.35 1018.51 1018.64 1018.65 1018.64 1018.68 1018.75 1018.78 1018.89 1018.93 1018.88 1018.77
1011.97 1012.43 1012.57 1013.04 1013.54 1013.87 1014.16 1014.51 1014.80 1015.08 1015.31 1015.64 1015.81 1016.13 1016.26 1016.37 1016.59 1016.73 1016.80 1016.91 1016.91 1016.78 1016.80 1016.91 1017.07 1017.30 1017.55 1017.77 1018.07 1018.26 1018.44 1018.57 1018.72 1018.86 1018.96 1019.05 1018.97 1018.92 1018.98 1019.07 1018.99 1018.95 1018.92
1012.17 1012.38 1012.70 1013.06 1013.60 1013.93 1014.30 1014.66 1015.00 1015.29 1015.58 1015.78 1016.03 1016.24 1016.54 1016.63 1016.74 1016.82 1016.91 1017.02 1017.06 1017.08 1017.20 1017.22 1017.44 1017.57 1017.85 1018.12 1018.29 1018.40 1018.57 1018.74 1018.85 1018.95 1019.11 1019.28 1019.23 1019.07 1019.08 1019.11 1018.99 1018.91 1018.93
1012.09 1012.54 1012.93 1013.19 1013.60 1014.03 1014.43 1014.76 1015.09 1015.40 1015.69 1015.95 1016.19 1016.40 1016.67 1016.83 1016.93 1017.02 1017.16 1017.19 1017.22 1017.38 1017.60 1017.69 1017.85 1018.13 1018.23 1018.38 1018.51 1018.65 1018.78 1018.92 1019.01 1019.09 1019.24 1019.27 1019.26 1019.02 1019.06 1019.13 1019.07 1019.00 1019.00
1012.32 1012.65 1013.01 1013.38 1013.81 1014.29 1014.68 1014.99 1015.32 1015.61 1015.82 1016.02 1016.23 1016.52 1016.75 1016.91 1017.03 1017.14 1017.36 1017.51 1017.64 1017.79 1018.01 1018.15 1018.21 1018.31 1018.47 1018.58 1018.70 1018.89 1019.03 1019.17 1019.25 1019.36 1019.44 1019.65 1019.54 1019.12 1018.96 1019.03 1019.06 1018.99 1018.99
1012.68 1012.91 1013.20 1013.61 1014.02 1014.48 1014.86 1015.16 1015.41 1015.67 1015.89 1016.13 1016.36 1016.60 1016.81 1016.97 1017.14 1017.36 1017.61 1017.83 1018.03 1018.15 1018.31 1018.38 1018.50 1018.59 1018.80 1018.85 1018.92 1019.06 1019.18 1019.30 1019.45 1019.53 1019.65 1019.74 1019.61 1019.17 1019.15 1019.13 1019.04 1019.03 1018.96
1012.87 1013.12 1013.37 1013.74 1014.19 1014.61 1014.91 1015.17 1015.41 1015.63 1015.83 1016.10 1016.41 1016.70 1016.97 1017.17 1017.39 1017.65 1017.92 1018.10 1018.22 1018.35 1018.44 1018.52 1018.62 1018.77 1018.94 1019.07 1019.17 1019.32 1019.40 1019.46 1019.60 1019.78 1019.79 1019.77 1019.55 1019.21 1019.29 1019.35 1019.35 1019.30 1019.31
1012.92 1013.14 1013.48 1013.84 1014.19 1014.59 1014.91 1015.19 1015.41 1015.67 1015.89 1016.11 1016.33 1016.76 1017.03 1017.28 1017.53 1017.77 1017.99 1018.25 1018.41 1018.49 1018.58 1018.66 1018.77 1018.92 1019.08 1019.26 1019.42 1019.49 1019.56 1019.67 1019.80 1019.93 1020.04 1019.94 1019.50 1019.46 1019.56 1019.56 1019.50 1019.62 1019.76
1012.99 1013.22 1013.55 1013.89 1014.20 1014.61 1014.95 1015.26 1015.50 1015.71 1016.00 1016.17 1016.44 1016.74 1017.09 1017.41 1017.71 1017.94 1018.13 1018.32 1018.46 1018.60 1018.60 1018.80 1018.91 1019.07 1019.30 1019.48 1019.58 1019.75 1019.75 1019.88 1020.15 1020.12 1020.00 1019.98 1019.72 1019.48 1019.75 1019.86 1019.76 1019.95 1020.08
1013.30 1013.41 1013.64 1013.96 1014.20 1014.58 1014.94 1015.24 1015.54 1015.77 1016.14 1016.42 1016.62 1016.88 1017.20 1017.50 1017.73 1017.99 1018.26 1018.41 1018.55 1018.71 1018.82 1018.91 1019.02 1019.25 1019.40 1019.63 1019.78 1019.83 1020.11 1020.19 1020.31 1020.28 1020.18 1020.06 1019.77 1019.84 1019.94 1020.14 1020.10 1020.27 1020.43
1013.44 1013.61 1013.70 1013.91 1014.19 1014.48 1014.87 1015.31 1015.50 1015.76 1016.11 1016.45 1016.70 1017.03 1017.35 1017.70 1017.94 1018.12 1018.36 1018.59 1018.76 1018.90 1018.96 1019.04 1019.25 1019.47 1019.74 1019.93 1020.05 1020.09 1020.29 1020.54 1020.44 1020.45 1020.29 1019.92 1020.00 1020.17 1020.32 1020.57 1020.50 1020.71 1020.73
1013.25 1013.54 1013.86 1013.94 1014.25 1014.49 1014.73 1015.15 1015.43 1015.77 1016.06 1016.45 1016.84 1017.17 1017.47 1017.82 1018.06 1018.24 1018.48 1018.70 1018.89 1019.04 1019.16 1019.32 1019.54 1019.80 1020.07 1020.45 1020.56 1020.58 1020.74 1020.86 1020.76 1020.69 1020.50 1020.21 1020.29 1020.45 1020.68 1020.82 1021.01 1021.05 1021.15
1012.95 1013.24 1013.47 1013.72 1013.96 1014.42 1014.65 1015.13 1015.42 1015.71 1016.06 1016.41 1016.76 1017.15 1017.46 1017.80 1018.05 1018.27 1018.63 1018.89 1019.09 1019.24 1019.58 1019.83 1020.11 1020.33 1020.41 1020.68 1020.92 1020.99 1021.08 1021.03 1020.99 1020.94 1020.56 1020.44 1020.67 1020.78 1020.93 1021.28 1021.41 1021.48 1021.63
1012.71 1012.90 1013.22 1013.43 1013.73 1014.17 1014.51 1014.92 1015.22 1015.55 1015.93 1016.26 1016.57 1016.95 1017.48 1017.82 1018.02 1018.26 1018.54 1018.90 1019.19 1019.43 1019.76 1020.10 1020.39 1020.59 1020.74 1020.89 1021.07 1021.33 1021.35 1021.31 1021.31 1021.25 1020.96 1020.80 1021.01 1021.20 1021.46 1021.66 1021.78 1021.82 1021.92
1012.74 1012.74 1012.93 1013.26 1013.55 1013.92 1014.40 1014.67 1015.07 1015.41 1015.66 1015.80 1016.23 1016.66 1017.13 1017.58 1017.83 1018.09 1018.42 1018.81 1019.18 1019.59 1019.87 1020.26 1020.54 1020.78 1020.94 1021.04 1021.18 1021.37 1021.66 1021.61 1021.58 1021.57 1021.44 1021.29 1021.40 1021.60 1021.81 1021.97 1022.07 1022.12 1022.21
1012.49 1012.43 1012.75 1012.95 1013.17 1013.49 1014.03 1014.46 1014.72 1015.02 1015.28 1015.57 1015.96 1016.48 1016.94 1017.34 1017.67 1018.05 1018.37 1018.71 1019.06 1019.34 1019.81 1020.21 1020.52 1020.84 1021.27 1021.29 1021.48 1021.58 1021.75 1021.94 1021.95 1021.86 1021.96 1021.83 1021.84 1021.99 1022.14 1022.30 1022.35 1022.36 1022.40
1012.07 1011.97 1012.34 1012.67 1013.04 1013.26 1013.54 1013.99 1014.29 1014.45 1014.78 1015.07 1015.46 1015.99 1016.50 1016.98 1017.46 1017.74 1018.12 1018.49 1018.76 1019.18 1019.71 1020.29 1020.61 1020.92 1021.31 1021.45 1021.80 1021.79 1021.95 1022.21 1022.27 1022.25 1022.41 1022.39 1022.40 1022.40 1022.43 1022.50 1022.52 1022.63 1022.64
1011.74 1012.01 1011.85 1011.98 1012.44 1012.82 1012.99 1013.24 1013.52 1013.95 1014.29 1014.58 1014.97 1015.34 1015.81 1016.26 1016.74 1017.34 1017.81 1018.13 1018.56 1019.03 1019.53 1020.23 1020.77 1021.16 1021.47 1021.69 1021.99 1021.95 1022.05 1022.34 1022.37 1022.53 1022.64 1022.76 1022.86 1022.96 1022.90 1022.84 1022.88 1022.92 1022.94
1011.25 1011.31 1011.60 1011.46 1011.58 1011.91 1012.26 1012.54 1012.73 1013.30 1013.71 1014.02 1014.51 1014.83 1015.12 1015.55 1015.92 1016.59 1017.21 1017.72 1018.30 1018.91 1019.53 1019.96 1020.67 1020.89 1021.50 1021.87 1022.17 1022.44 1022.38 1022.43 1022.56 1022.58 1022.90 1023.07 1023.15 1023.23 1023.37 1023.14 1023.29 1023.33 1023.24
1010.82 1010.80 1010.86 1011.04 1010.99 1011.13 1011.39 1011.95 1012.41 1012.85 1013.17 1013.40 1013.72 1013.97 1014.45 1014.88 1015.47 1015.95 1016.68 1017.25 1017.87 1018.66 1019.20 1019.59 1020.24 1020.90 1021.21 1021.70 1022.12 1022.58 1022.80 1022.70 1022.72 1022.88 1023.03 1023.10 1023.38 1023.56 1023.70 1023.83 1023.87 1023.84 1023.59
1010.38 1010.38 1010.30 1010.35 1010.25 1010.44 1010.91 1011.26 1011.74 1011.93 1012.18 1012.75 1012.90 1013.20 1013.66 1014.03 1014.75 1015.35 1016.06 1016.95 1017.43 1017.95 1018.28 1019.01 1020.00 1020.66 1021.46 1021.73 1022.29 1022.83 1022.89 1022.88 1022.95 1023.01 1023.21 1023.36 1023.25 1023.56 1023.69 1023.76 1023.89 1023.99 1023.93
1009.75 1009.73 1009.68 1009.67 1009.59 1009.79 1010.16 1010.34 1010.58 1010.97 1011.34 1011.43 1011.95 1012.27 1012.60 1013.31 1014.07 1014.72 1015.25 1016.10 1016.81 1017.19 1017.92 1018.53 1019.03 1020.24 1021.01 1021.34 1022.00 1022.73 1023.22 1023.34 1023.20 1023.16 1023.22 1023.25 1023.37 1023.45 1023.66 1023.79 1023.87 1024.01 1024.11
1009.58 1009.25 1009.28 1009.21 1009.13 1009.08 1009.37 1009.88 1010.34 1010.74 1011.20 1011.43 1011.68 1011.90 1011.98 1012.39 1013.03 1013.75 1014.41 1015.12 1015.74 1016.41 1016.75 1017.38 1018.08 1018.76 1020.09 1021.01 1021.12 1021.49 1022.91 1022.94 1023.16 1023.37 1023.29 1023.27 1023.35 1023.51 1023.74 1023.82 1023.87 1023.98 1024.08
1008.97 1008.57 1008.47 1008.56 1008.68 1008.70 1008.83 1009.33 1009.63 1009.69 1010.14 1010.28 1010.27 1010.60 1011.05 1011.40 1012.14 1012.86 1013.56 1014.26 1015.01 1015.91 1016.16 1016.54 1017.17 1017.73 1018.58 1019.97 1021.06 1021.07 1021.32 1021.58 1022.45 1023.58 1023.50 1023.34 1023.35 1023.50 1023.68 1023.80 1023.93 1024.05 1024.15
1009.10 1008.93 1008.83 1008.22 1008.02 1008.01 1008.19 1008.43 1008.81 1009.21 1009.41 1009.55 1009.95 1010.33 1010.81 1011.14 1011.29 1011.97 1012.78 1013.56 1014.26 1014.99 1015.76 1016.07 1016.88 1017.29 1017.79 1018.60 1019.32 1020.61 1021.33 1021.67 1021.71 1022.28 1023.26 1023.33 1023.39 1023.23 1023.49 1023.78 1023.88 1024.07 1024.18
1009.17 1008.96 1008.79 1008.77 1008.62 1008.12 1008.04 1007.99 1008.12 1008.44 1008.78 1009.28 1009.59 1009.88 1010.34 1010.80 1011.14 1011.46 1011.91 1012.59 1013.39 1014.23 1014.87 1015.48 1016.25 1016.83 1017.26 1017.57 1018.26 1018.79 1019.45 1020.56 1021.38 1021.78 1022.64 1023.06 1023.21 1023.29 1023.35 1023.59 1023.80 1023.99 1024.15
Thickness
5760 5762 5760 5756 5754 5753 5750 5748 5746 5745 5742 5740 5739 5737 5736 5735 5734 5733 5732 5731 5732 5733 5732 5730 5729 5728 5726 5724 5722 5720 5718 5717 5716 5715 5714 5714 5713 5713 5712 5711 5710 5711 5710
5764 5760 5758 5754 5749 5747 5746 5743 5741 5739 5738 5735 5734 5731 5731 5731 5730 5730 5729 5728 5728 5729 5729 5727 5726 5723 5722 5720 5718 5716 5714 5712 5711 5710 5709 5708 5708 5708 5707 5706 5707 5706 5706
5760 5757 5754 5751 5746 5744 5742 5740 5737 5735 5732 5731 5729 5728 5726 5726 5726 5726 5726 5725 5724 5724 5724 5723 5720 5719 5716 5714 5712 5711 5709 5708 5707 5707 5705 5704 5704 5704 5704 5703 5704 5704 5703
5757 5753 5750 5748 5745 5741 5739 5736 5734 5731 5729 5728 5726 5724 5722 5721 5721 5721 5720 5720 5720 5719 5717 5716 5715 5712 5711 5709 5707 5705 5704 5703 5703 5703 5702 5702 5701 5701 5701 5700 5700 5699 5698
5752 5749 5747 5743 5740 5737 5734 5732 5729 5727 5725 5724 5723 5720 5719 5718 5717 5717 5715 5714 5713 5711 5710 5708 5708 5707 5706 5705 5703 5701 5699 5698 5698 5698 5698 5696 5696 5697 5698 5697 5697 5697 5695
5747 5744 5742 5739 5736 5732 5730 5728 5726 5724 5722 5720 5718 5716 5715 5714 5713 5711 5709 5708 5706 5705 5703 5703 5702 5701 5698 5698 5697 5696 5695 5694 5694 5694 5693 5691 5691 5692 5693 5693 5693 5692 5691
5742 5740 5737 5735 5731 5728 5726 5724 5723 5721 5718 5716 5713 5712 5710 5708 5707 5705 5703 5701 5701 5699 5698 5697 5697 5695 5693 5692 5691 5690 5690 5690 5689 5687 5688 5687 5688 5689 5688 5686 5686 5686 5683
5737 5736 5733 5730 5728 5725 5723 5721 5720 5718 5715 5713 5712 5708 5706 5704 5702 5700 5698 5696 5695 5694 5693 5693 5691 5690 5688 5687 5685 5685 5685 5685 5684 5683 5682 5682 5683 5683 5681 5681 5682 5679 5676
5732 5731 5729 5726 5724 5721 5719 5717 5716 5714 5712 5710 5708 5706 5703 5700 5697 5695 5694 5692 5691 5689 5689 5688 5687 5685 5683 5681 5681 5679 5680 5680 5678 5678 5678 5678 5677 5679 5676 5674 5675 5673 5671
5726 5726 5724 5722 5720 5718 5715 5713 5711 5709 5707 5705 5704 5701 5698 5696 5694 5692 5690 5689 5687 5685 5684 5684 5682 5680 5679 5676 5676 5676 5674 5674 5673 5673 5673 5673 5672 5671 5670 5668 5668 5666 5663
5718 5718 5718 5718 5716 5714 5712 5709 5707 5706 5703 5701 5699 5697 5694 5692 5690 5688 5686 5684 5682 5681 5680 5679 5677 5675 5673 5670 5670 5670 5668 5666 5667 5666 5667 5667 5665 5663 5662 5660 5660 5657 5656
5710 5711 5711 5712 5710 5710 5708 5706 5704 5701 5699 5697 5694 5691 5690 5687 5685 5683 5681 5679 5677 5675 5675 5673 5671 5669 5667 5664 5663 5662 5661 5659 5659 5659 5658 5657 5656 5655 5653 5652 5649 5648 5647
5709 5708 5709 5708 5706 5705 5704 5701 5700 5698 5695 5693 5690 5687 5685 5682 5680 5679 5676 5673 5671 5670 5668 5666 5664 5662 5661 5659 5656 5655 5654 5654 5653 5651 5651 5650 5647 5645 5644 5640 5639 5638 5636
5706 5705 5705 5704 5703 5701 5700 5698 5695 5694 5691 5688 5686 5683 5680 5677 5675 5674 5672 5668 5666 5665 5663 5660 5658 5656 5654 5652 5650 5647 5646 5646 5644 5643 5642 5641 5638 5636 5633 5631 5629 5628 5627
5701 5702 5702 5700 5699 5696 5694 5693 5691 5689 5687 5685 5683 5681 5678 5673 5671 5670 5667 5664 5661 5658 5657 5654 5652 5650 5648 5647 5644 5642 5639 5638 5637 5635 5634 5632 5630 5627 5624 5622 5620 5619 5618
5699 5700 5697 5697 5695 5692 5691 5689 5687 5685 5683 5682 5680 5677 5673 5670 5668 5664 5662 5658 5655 5654 5652 5649 5646 5643 5639 5638 5637 5635 5633 5630 5628 5627 5624 5622 5620 5618 5615 5613 5612 5611 5610
5696 5698 5696 5693 5690 5690 5689 5686 5684 5683 5681 5680 5678 5675 5671 5668 5663 5660 5657 5654 5652 5650 5647 5643 5640 5638 5634 5632 5629 5628 5626 5622 5621 5619 5616 5614 5611 5609 5607 5605 5604 5602 5602
5691 5689 5692 5693 5689 5686 5687 5685 5682 5680 5678 5677 5675 5673 5671 5667 5663 5658 5653 5651 5649 5646 5643 5637 5632 5629 5627 5624 5621 5621 5620 5615 5614 5611 5608 5606 5603 5600 5597 5596 5595 5593 5592
5686 5688 5686 5689 5690 5688 5686 5685 5682 5677 5675 5674 5672 5671 5670 5666 5663 5658 5652 5648 5644 5640 5636 5632 5627 5626 5620 5616 5614 5611 5611 5609 5605 5603 5600 5596 5594 5592 5589 5587 5585 5584 5583
5681 5683 5684 5685 5687 5686 5687 5683 5679 5676 5674 5673 5671 5670 5667 5664 5659 5656 5650 5646 5642 5636 5631 5628 5624 5618 5616 5611 5608 5603 5599 5599 5597 5594 5592 5589 5585 5583 5580 5577 5576 5575 5573
5677 5678 5681 5680 5684 5684 5679 5677 5675 5675 5675 5671 5670 5666 5664 5664 5659 5653 5647 5641 5638 5635 5633 5627 5619 5614 5607 5604 5600 5595 5593 5591 5589 5587 5583 5581 5580 5576 5573 5571 5568 5566 5565
5674 5675 5676 5677 5678 5677 5676 5676 5676 5674 5672 5673 5668 5666 5665 5661 5656 5650 5647 5640 5635 5632 5627 5622 5619 5609 5603 5599 5595 5589 5585 5583 5580 5579 5577 5574 5573 5570 5566 5564 5561 5558 5555
5665 5669 5670 5671 5672 5673 5672 5670 5668 5666 5664 5663 5662 5662 5663 5659 5655 5649 5645 5639 5636 5632 5629 5625 5619 5615 5602 5594 5594 5592 5574 5580 5573 5569 5569 5566 5565 5562 5558 5555 5553 5550 5547
5661 5664 5666 5666 5666 5665 5665 5664 5663 5667 5664 5665 5665 5662 5659 5656 5652 5647 5644 5637 5633 5627 5626 5623 5618 5614 5607 5595 5585 5585 5582 5580 5572 5563 5559 5558 5556 5553 5550 5546 5543 5540 5537
5647 5649 5651 5657 5659 5660 5658 5658 5655 5654 5658 5658 5655 5654 5651 5649 5648 5645 5639 5633 5630 5627 5620 5618 5612 5608 5605 5598 5590 5578 5572 5567 5565 5562 5554 5550 5547 5545 5541 5536 5534 5530 5526
5637 5639 5640 5640 5642 5646 5648 5650 5651 5649 5649 5643 5642 5644 5643 5641 5639 5638 5635 5633 5628 5623 5618 5612 5606 5602 5600 5598 5591 5585 5579 5569 5560 5554 5547 5541 5538 5535 5531 5527 5523 5519 5515